Home   Weather   Birmingham   Past weeks
Flag for USA

Past Weather in Birmingham, Alabama, USA — Yesterday and Last 2 Weeks

Now
46 °F

Clear.


Feels Like: 46 °F
Forecast: 68 / 41 °F
Wind: No wind

Location: Birmingham International Airport

Current Time: Oct 23, 2019 at 2:54:30 am

Latest Report: Oct 23, 2019 at 1:53 am


Visibility: 10 mi

Pressure: 30.17 "Hg

Humidity: 83%

Dew Point: 41 °F

Location of BirminghamLocation

Past Weather in Birmingham — Graph

°F

Birmingham Temperature Yesterday

Maximum temperature yesterday: 72 °F (at 1:53 pm)
Minimum temperature yesterday: 49 °F (at 11:53 pm)
Average temperature yesterday: 62 °F

High & Low Weather Summary for the Past Weeks

 TemperatureHumidityPressure
High85 °F (Oct 11, 2:53 pm)96% (Oct 16, 12:15 am)30.17 "Hg (Oct 16, 12:15 am)
Low43 °F (Oct 17, 6:53 am)26% (Oct 22, 1:53 pm)29.78 "Hg (Oct 19, 3:53 pm)
Average65 °F72%30.01 "Hg
* Reported Oct 8 12:53 am — Oct 23 12:53 am, Birmingham. Weather by CustomWeather, © 2019

Note: Actual official high and low records may vary slightly from our data, if they occured in-between our weather recording intervals... More about our weather records

Advertising

Birmingham Weather History for the Previous 24 Hours

Scroll right to see more
 ConditionsComfort  
Time TempWeatherWind HumidityBarometerVisibility
12:53 am
Wed, Oct 23
47 °FClear.No wind80%30.16 "Hg10 mi
11:53 pm
Tue, Oct 22
49 °FClear.No wind74%30.15 "Hg10 mi
10:53 pm54 °FClear.5 mph59%30.15 "Hg10 mi
9:53 pm56 °FClear.6 mph58%30.14 "Hg10 mi
8:53 pm58 °FClear.6 mph54%30.12 "Hg10 mi
7:53 pm59 °FClear.8 mph49%30.10 "Hg10 mi
6:53 pm61 °FPassing clouds.8 mph42%30.08 "Hg10 mi
5:53 pm65 °FPassing clouds.9 mph34%30.05 "Hg10 mi
4:53 pm68 °FPassing clouds.14 mph30%30.03 "Hg10 mi
3:53 pm70 °FPassing clouds.13 mph28%30.02 "Hg10 mi
2:53 pm71 °FPassing clouds.15 mph28%30.02 "Hg10 mi
1:53 pm72 °FPassing clouds.12 mph26%30.02 "Hg10 mi
12:53 pm69 °FPassing clouds.9 mph32%30.04 "Hg10 mi
11:53 am68 °FPassing clouds.10 mph33%30.06 "Hg10 mi
10:53 am65 °FPassing clouds.12 mph52%30.06 "Hg10 mi
9:53 am64 °FScattered clouds.7 mph58%30.06 "Hg10 mi
8:53 am60 °FPartly sunny.6 mph80%30.05 "Hg10 mi
7:53 am57 °FPartly sunny.6 mph90%30.03 "Hg10 mi
6:53 am57 °FPassing clouds.5 mph87%30.01 "Hg10 mi
5:53 am59 °FPassing clouds.8 mph84%29.99 "Hg10 mi
4:53 am61 °FOvercast.10 mph81%29.97 "Hg10 mi
3:53 am62 °FPassing clouds.8 mph86%29.94 "Hg10 mi
3:26 am62 °FPassing clouds.6 mph83%29.95 "Hg10 mi
3:15 am62 °FPartly cloudy.5 mph86%29.95 "Hg10 mi
2:53 am62 °FOvercast.5 mph86%29.93 "Hg10 mi
Weather by CustomWeather, © 2019

See weather overview